SUPERBIRD-B3

Last updated on Tue Sep 16 2025 00:02:49 GMT+0000 (Coordinated Universal Time)

1 43271U 18033A 25258.61294759 -.00000109 00000+0 00000+0 0 9996 2 43271 0.0381 261.2856 0000737 316.4951 159.6879 1.00272020 27308
UTC large
Height (km)
Speed (km/s)
/
Latitude / Longitude
Inclination (degrees)
Orbital Period (minutes)
Azimuth
Elevation
Range (km)
Doppler Factor

Next 0 passes for location: London (51.5072 / 0.1276)

Sorry there are no passes over London.